This demonstration page uses our WeatherBlox Daily Observations layout. Learn more.

Left ArrowRight Arrow

Hourly Observations for January 6, 2018

Temp ( °F °C ) Dew Point ( °F °C ) Humidity (%) Winds ( mph kmh ) Pressure ( in mb ) Visibility ( mi km ) Precip ( " mm )
12:15 am 00:15 Clear -8 -22 -9 -23 92 92 W 6 9 30.56 1035 10 16 N/A
12:35 am 00:35 Clear -9 -23 -9 -23 100 100 W 7 11 30.56 1035 10 16 N/A
12:55 am 00:55 Clear -6 -21 -8 -22 92 92 WSW 5 7 30.56 1035 10 16 N/A
1:15 am 01:15 Clear -6 -21 -8 -22 92 92 W 3 6 30.56 1035 10 16 N/A
1:35 am 01:35 Clear -6 -21 -8 -22 92 92 W 3 6 30.56 1035 10 16 N/A
1:55 am 01:55 Clear -8 -22 -9 -23 92 92 W 5 7 30.56 1035 10 16 N/A
2:15 am 02:15 Clear -6 -21 -6 -21 100 100 N N/A 30.59 1036 10 16 N/A
2:35 am 02:35 Clear -8 -22 -8 -22 100 100 N N/A 30.59 1036 10 16 N/A
2:55 am 02:55 Clear -9 -23 -9 -23 100 100 N N/A 30.59 1036 10 16 N/A
3:15 am 03:15 Clear -9 -23 -11 -24 92 92 N N/A 30.59 1036 10 16 N/A
3:35 am 03:35 Clear -11 -24 -13 -25 91 91 N N/A 30.65 1038 10 16 N/A
3:55 am 03:55 Clear -9 -23 -11 -24 92 92 N N/A 30.62 1037 10 16 N/A
4:15 am 04:15 Clear -9 -23 -11 -24 92 92 N N/A 30.62 1037 10 16 N/A
4:35 am 04:35 Clear -11 -24 -13 -25 91 91 N N/A 30.65 1038 10 16 N/A
4:55 am 04:55 Clear -8 -22 -9 -23 92 92 N N/A 30.62 1037 10 16 N/A
5:15 am 05:15 Clear -9 -23 -11 -24 92 92 N N/A 30.62 1037 10 16 N/A
5:35 am 05:35 Clear -9 -23 -11 -24 92 92 N N/A 30.62 1037 10 16 N/A
5:55 am 05:55 Clear -11 -24 -13 -25 91 91 N N/A 30.68 1039 10 16 N/A
6:15 am 06:15 Clear -11 -24 -13 -25 91 91 N N/A 30.68 1039 10 16 N/A
6:35 am 06:35 Clear -11 -24 -13 -25 91 91 N N/A 30.68 1039 10 16 N/A
6:55 am 06:55 Clear -13 -25 -15 -26 91 91 N N/A 30.68 1039 10 16 N/A
7:15 am 07:15 Clear -11 -24 -13 -25 91 91 N N/A 30.68 1039 10 16 N/A
7:35 am 07:35 Clear -13 -25 -15 -26 91 91 N N/A 30.68 1039 10 16 N/A
7:55 am 07:55 Clear -13 -25 -15 -26 91 91 N N/A 30.68 1039 10 16 N/A
8:15 am 08:15 Sunny -13 -25 -15 -26 91 91 N N/A 30.68 1039 10 16 N/A
8:35 am 08:35 Sunny -11 -24 -15 -26 84 84 N N/A 30.68 1039 10 16 N/A
8:55 am 08:55 Sunny -9 -23 -11 -24 92 92 N N/A 30.68 1039 10 16 N/A
9:15 am 09:15 Sunny -6 -21 -8 -22 92 92 N N/A 30.68 1039 10 16 N/A
9:35 am 09:35 Sunny -4 -20 -4 -20 100 100 N N/A 30.68 1039 10 16 N/A
9:55 am 09:55 Sunny N/A -2 -19 92 92 N N/A 30.68 1039 10 16 N/A
10:15 am 10:15 Sunny 1 -17 N/A 92 92 N N/A 30.68 1039 10 16 N/A
10:35 am 10:35 Sunny 3 -16 1 -17 92 92 N N/A 30.71 1040 10 16 N/A
10:55 am 10:55 Sunny 3 -16 1 -17 92 92 N N/A 30.71 1040 10 16 N/A
11:15 am 11:15 Sunny 7 -14 N/A 72 72 N N/A 30.68 1039 10 16 N/A
11:35 am 11:35 Sunny 9 -13 1 -17 72 72 N N/A 30.68 1039 10 16 N/A
11:55 am 11:55 Sunny 9 -13 1 -17 72 72 N N/A 30.68 1039 10 16 N/A
12:15 pm 12:15 Sunny 10 -12 1 -17 67 67 N N/A 30.68 1039 10 16 N/A
12:35 pm 12:35 Sunny 12 -11 3 -16 67 67 N N/A 30.68 1039 10 16 N/A
12:55 pm 12:55 Sunny 14 -10 3 -16 62 62 W 3 6 30.68 1039 10 16 N/A
1:15 pm 13:15 Sunny 14 -10 3 -16 62 62 W 5 7 30.68 1039 10 16 N/A
1:35 pm 13:35 Sunny 16 -9 5 -15 62 62 N N/A 30.65 1038 10 16 N/A
1:55 pm 13:55 Sunny 16 -9 5 -15 62 62 S 3 6 30.65 1038 10 16 N/A
2:15 pm 14:15 Sunny 16 -9 5 -15 62 62 SSE 5 7 30.65 1038 10 16 N/A
2:35 pm 14:35 Sunny 16 -9 5 -15 62 62 SE 5 7 30.65 1038 10 16 N/A
2:55 pm 14:55 Sunny 16 -9 5 -15 62 62 ESE 5 7 30.65 1038 10 16 N/A
3:15 pm 15:15 Sunny 16 -9 5 -15 62 62 SSE 5 7 30.65 1038 10 16 N/A
3:35 pm 15:35 Sunny 16 -9 7 -14 67 67 SSE 5 7 30.65 1038 10 16 N/A
3:55 pm 15:55 Sunny 16 -9 7 -14 67 67 SSE 5 7 30.65 1038 10 16 N/A
4:15 pm 16:15 Sunny 14 -10 7 -14 73 73 SE 6 9 30.65 1038 10 16 N/A
4:35 pm 16:35 Sunny 14 -10 7 -14 73 73 SE 5 7 30.65 1038 10 16 N/A
4:55 pm 16:55 Sunny 14 -10 5 -15 67 67 SSE 5 7 30.65 1038 10 16 N/A
5:15 pm 17:15 Sunny 12 -11 5 -15 73 73 SSE 5 7 30.65 1038 10 16 N/A
5:35 pm 17:35 Clear 10 -12 3 -16 72 72 S 5 7 30.65 1038 10 16 N/A
5:55 pm 17:55 Clear 7 -14 3 -16 85 85 S 5 7 30.65 1038 10 16 N/A
6:15 pm 18:15 Clear 5 -15 N/A 78 78 SSE 5 7 30.65 1038 10 16 N/A
6:35 pm 18:35 Clear 5 -15 1 -17 85 85 SE 5 7 30.65 1038 10 16 N/A
6:55 pm 18:55 Clear 5 -15 N/A 78 78 SSE 6 9 30.65 1038 10 16 N/A
7:15 pm 19:15 Clear 5 -15 N/A 78 78 SSE 5 7 30.65 1038 10 16 N/A
7:35 pm 19:35 Clear 5 -15 1 -17 85 85 SSE 6 9 30.62 1037 10 16 N/A
7:55 pm 19:55 Clear 1 -17 -2 -19 85 85 SSE 5 7 30.65 1038 10 16 N/A
8:15 pm 20:15 Clear 1 -17 N/A 92 92 SSE 6 9 30.65 1038 10 16 N/A
8:35 pm 20:35 Clear 3 -16 1 -17 92 92 SSE 5 7 30.65 1038 10 16 N/A
8:55 pm 20:55 Clear 3 -16 N/A 85 85 SE 5 7 30.65 1038 10 16 N/A
9:15 pm 21:15 Clear 1 -17 -2 -19 85 85 ESE 3 6 30.65 1038 10 16 N/A
9:35 pm 21:35 Clear 1 -17 -2 -19 85 85 SE 3 6 30.65 1038 10 16 N/A
9:55 pm 21:55 Clear N/A -2 -19 92 92 N N/A 30.65 1038 10 16 N/A
10:15 pm 22:15 Clear -2 -19 -4 -20 92 92 SE 3 6 30.65 1038 10 16 N/A
10:35 pm 22:35 Clear -2 -19 -4 -20 92 92 SE 5 7 30.65 1038 10 16 N/A
10:55 pm 22:55 Clear 1 -17 -2 -19 85 85 SE 6 9 30.62 1037 10 16 N/A
11:15 pm 23:15 Clear 3 -16 -2 -19 78 78 SE 7 11 30.59 1036 10 16 N/A
11:35 pm 23:35 Clear 3 -16 -2 -19 78 78 SE 6 9 30.56 1035 10 16 N/A
11:55 pm 23:55 Clear 3 -16 -2 -19 78 78 SE 7 11 30.56 1035 10 16 N/A

Powered by AerisWeather